Tracking 35280 objects as of 7-Sep-2026
HD Live streaming from Space Station
objects crossing your sky now

SL-4 R/B


SL-4 R/B is no longer on orbit


NORAD ID: 48866
Int'l Code: 2021-056B
Launch date: June 25, 2021
Source: Commonwealth of Independent States (former USSR) (CIS)
Launch site: PLESETSK MISSILE AND SPACE COMPLEX (PKMTR)
Decay date: 2021-07-26

Note: This is a ROCKET BODY
Your satellite tracking list
Your tracking list is empty




NASA's NSSDC Master Catalog

Two Line Element Set (TLE):
1 48866U 21056B   21207.66117508  .21260751  65407-5  13328-3 0  9993
2 48866  67.1087  94.9160 0012936  55.2631 305.7849 16.53481171  4945
Source of the keplerian elements: AFSPC